GFSGL_250_spd_021.txt.gz
Wind_Speed
17 5 2 13 22 15 12 19 20 18 18 15 16 19 18 22 23 25 23 23 24 28 39 46 53 56 71 77 75 73 68 55 52 51 48 48 47 47 46 44 45 46 43
12 4 4 15 22 14 14 18 19 17 16 16 17 17 17 20 20 19 23 26 33 33 38 47 48 57 71 75 75 75 65 55 50 48 56 52 41 51 48 47 48 42 40
6 9 6 17 20 15 16 20 21 15 16 16 17 17 17 16 17 16 31 26 28 29 30 35 40 51 64 71 73 68 62 55 53 45 60 52 44 41 41 39 40 40 41
5 11 7 13 17 19 17 22 23 16 18 16 14 13 13 15 17 18 37 26 36 25 25 30 34 48 56 64 67 67 63 62 51 41 49 50 43 43 41 40 37 32 33
4 11 5 5 11 17 25 22 27 21 19 16 13 11 14 16 19 20 37 30 31 29 24 29 27 39 51 57 66 73 61 59 48 45 48 43 39 39 45 35 34 38 42
5 12 9 7 5 9 18 27 24 25 19 19 16 13 13 16 17 19 28 34 25 30 24 31 25 25 25 37 48 51 66 58 58 46 44 35 36 41 33 43 43 44 45
3 12 11 8 3 5 11 19 24 23 22 18 21 22 19 16 17 18 21 33 31 24 29 26 24 22 21 25 30 33 43 60 56 53 30 38 44 40 43 44 41 47 48
3 8 13 9 6 2 9 13 18 21 24 22 23 22 20 16 14 16 18 27 32 26 20 24 28 25 25 25 23 29 30 33 55 56 51 31 34 44 42 46 46 42 44
7 6 7 8 6 4 4 7 10 15 17 22 25 24 24 20 19 18 20 26 33 29 23 19 16 23 23 22 24 24 23 24 30 40 48 40 35 37 39 37 45 44 46
8 6 5 7 8 5 5 6 7 10 12 13 16 19 22 22 24 15 22 27 26 26 23 18 14 16 19 20 21 19 19 24 28 34 39 37 40 43 47 48 45 45 48
7 7 7 7 6 7 8 8 4 4 8 10 9 13 19 17 19 17 18 23 21 22 22 25 22 17 17 19 25 31 32 31 36 35 31 34 38 43 44 46 48 48 49
8 7 7 6 7 7 8 7 5 5 7 8 8 9 11 13 15 16 14 21 21 18 21 23 25 25 23 25 22 26 28 33 35 37 33 34 33 33 41 40 44 48 49
15 9 6 6 6 5 5 7 7 7 8 12 13 12 8 11 11 10 12 14 18 14 11 13 17 17 17 16 22 24 24 25 31 37 38 39 37 36 40 43 45 46 50
14 15 11 5 5 5 4 4 4 6 7 9 12 15 14 14 12 11 12 13 18 17 16 17 17 19 20 22 24 25 28 31 31 35 37 38 40 44 48 51 49 51 52
11 13 16 13 7 5 5 4 4 4 3 4 6 8 12 15 17 17 15 14 15 17 20 20 19 19 20 20 22 24 24 25 27 29 33 38 40 43 46 50 53 53 53
9 10 12 15 14 6 5 4 5 4 3 1 5 5 5 6 7 11 15 17 19 19 19 19 22 24 25 25 27 29 32 33 33 35 37 39 39 41 42 45 47 49 49
4 7 10 10 12 12 9 7 4 5 4 3 3 1 2 4 5 6 8 9 10 12 14 16 19 21 25 27 28 31 33 35 36 38 39 39 41 42 43 44 45 45 47
4 2 4 6 6 5 6 8 8 10 8 6 5 5 5 4 4 5 7 8 9 10 11 13 14 15 17 18 21 23 24 26 28 31 33 36 38 40 42 43 43 47 50
8 6 4 1 2 3 3 3 3 5 7 8 7 6 6 6 7 8 8 8 10 12 13 16 17 18 19 20 21 23 25 25 27 30 33 36 39 41 44 48 51 53 54
13 12 10 8 6 3 3 2 1 2 5 7 8 7 7 7 5 4 6 9 12 15 18 20 22 24 26 26 26 26 28 31 32 34 36 39 42 44 47 49 52 54 57
17 18 17 16 13 10 9 8 7 6 6 7 9 10 12 12 10 8 7 7 8 9 12 16 18 18 18 20 21 23 24 23 24 27 31 36 39 43 46 49 54 58 60
23 21 22 21 20 19 15 11 9 5 4 6 10 11 16 17 15 13 12 7 11 17 21 24 24 22 23 23 20 16 16 19 21 28 31 37 42 46 48 51 55 57 57
31 27 27 27 31 28 24 20 20 14 9 10 12 15 16 20 18 16 18 21 22 24 25 23 25 21 23 23 21 19 22 24 28 37 43 49 53 55 57 61 56 54 57
36 32 32 36 34 39 37 34 30 29 29 25 25 28 24 16 20 20 22 22 25 26 26 29 26 25 26 25 26 31 37 39 42 49 55 57 60 62 65 61 59 58 58
36 33 34 36 37 36 41 43 39 33 33 34 31 34 34 33 39 42 37 31 27 35 31 28 29 25 30 29 26 32 38 50 48 55 56 56 58 62 60 63 62 62 59
37 40 36 36 37 35 37 44 44 41 39 41 43 35 38 44 47 45 45 39 39 36 35 35 33 33 37 41 41 49 57 50 56 56 57 56 55 60 58 58 54 58 63

GFSGL_250_spd_024.txt.gz
Wind_Speed
21 15 1 10 16 12 11 16 12 9 8 11 13 15 13 14 14 14 11 12 19 28 41 59 73 68 59 69 68 68 63 56 49 45 42 46 45 43 44 45 43 42 40
19 4 4 9 13 10 11 14 9 7 12 12 13 19 18 18 17 18 17 18 24 38 55 69 74 59 62 69 65 58 54 48 45 43 44 40 40 40 45 44 42 41 43
9 10 6 7 16 10 13 11 7 10 12 13 14 19 19 16 21 23 25 18 27 42 56 72 66 57 64 64 62 61 55 44 49 48 44 41 43 41 43 41 42 47 43
3 11 6 4 15 15 14 10 9 10 11 9 12 15 20 20 28 25 26 17 32 39 48 67 60 57 66 62 62 57 47 46 50 48 44 36 46 39 38 38 38 42 41
5 13 9 4 6 15 14 11 11 10 9 7 9 11 14 21 29 27 26 17 29 37 47 63 58 60 66 68 59 54 47 46 48 44 44 35 37 41 37 39 42 41 38
6 12 11 10 2 7 16 15 13 14 11 12 9 11 15 21 36 29 31 25 20 33 38 52 56 56 61 66 52 53 44 47 44 43 45 42 25 37 35 35 34 38 36
4 11 12 10 5 5 11 17 12 12 13 15 15 13 15 20 30 31 29 28 22 30 30 35 54 50 58 61 56 51 50 48 46 31 37 44 40 31 35 38 39 41 37
3 8 12 10 8 6 5 13 17 13 10 13 15 15 14 17 20 32 31 28 21 26 29 28 31 49 48 55 59 52 49 48 41 35 28 40 33 38 35 40 40 43 42
8 4 8 8 6 6 3 5 12 15 17 18 19 19 20 14 15 19 32 31 20 25 24 23 24 25 27 42 49 55 51 48 46 44 39 29 33 40 42 45 45 44 45
9 6 3 7 6 4 5 3 7 11 13 14 22 23 26 9 12 15 25 31 22 21 23 26 24 26 21 26 29 30 37 44 51 47 45 45 43 36 34 39 46 46 52
6 8 7 2 9 9 7 8 8 6 10 14 16 22 18 19 19 18 26 29 17 14 21 17 17 23 22 20 24 23 18 20 22 26 38 39 41 43 42 42 42 43 45
7 7 7 7 6 5 9 11 8 8 6 9 12 18 19 16 21 24 28 28 26 22 19 17 18 16 17 19 18 25 29 25 22 27 28 34 36 36 35 39 43 47 47
12 7 6 7 8 7 5 3 6 8 11 11 11 12 14 11 13 14 17 18 19 18 23 22 17 11 18 20 20 25 28 31 28 31 32 36 42 41 46 50 49 54 56
14 13 8 6 7 7 6 6 4 4 7 12 15 13 13 14 10 8 11 15 17 15 19 22 24 26 28 26 27 27 28 26 32 36 37 38 40 44 47 49 49 50 51
10 13 14 10 8 7 7 7 6 5 3 5 8 14 14 13 13 12 11 13 14 13 14 14 14 19 22 21 20 21 23 29 32 33 35 38 40 43 44 46 50 53 57
7 9 12 13 12 10 8 6 7 6 6 3 3 6 9 13 17 17 16 15 14 14 14 14 19 19 19 21 23 24 25 27 29 31 34 37 40 44 47 50 52 53 53
3 5 9 10 10 12 13 12 11 10 8 6 6 4 1 4 8 11 16 19 21 21 22 21 22 23 28 30 31 33 34 34 35 37 39 41 43 44 43 41 42 44 46
5 4 4 6 8 6 6 8 9 8 8 9 8 6 4 3 3 3 5 8 10 12 14 16 18 20 22 24 26 27 28 28 28 29 30 32 33 35 37 40 44 47 50
9 8 7 5 4 5 4 2 3 5 7 7 6 5 3 1 0 2 4 5 5 6 7 8 10 13 16 18 20 22 24 25 27 29 30 32 35 37 38 38 39 43 46
14 12 10 11 9 7 6 5 3 2 1 3 4 6 8 7 4 4 3 3 4 4 5 6 8 12 14 16 18 21 24 25 26 26 24 21 23 26 32 45 48 55 55
19 15 14 14 15 14 12 10 9 6 4 3 3 4 8 9 9 7 4 5 3 3 6 9 10 16 15 12 14 16 17 18 17 19 24 33 35 44 50 51 51 54 55
26 21 18 17 17 20 19 16 14 12 9 8 7 4 7 11 9 7 9 9 8 15 16 16 20 21 15 16 17 17 18 19 21 29 35 38 41 46 50 51 55 54 52
32 30 25 20 22 20 23 25 24 22 18 15 11 6 3 3 5 9 14 16 20 19 18 22 24 24 19 17 16 18 18 19 21 36 39 47 40 48 42 50 49 50 54
41 37 34 30 27 28 28 27 33 31 31 26 24 20 17 14 13 17 23 23 29 32 21 26 23 23 20 16 15 21 22 25 37 46 50 54 58 59 47 56 53 53 50
47 43 43 41 31 34 34 35 34 40 38 37 39 38 37 28 23 23 26 25 31 36 37 32 28 33 24 22 23 29 31 36 44 51 55 63 52 60 54 52 55 61 60
47 48 48 43 36 35 38 36 33 35 42 44 42 44 42 39 36 35 37 38 34 33 36 37 29 26 23 25 30 48 52 53 55 58 58 63 64 69 67 61 72 64 70

GFSGL_250_spd_027.txt.gz
Wind_Speed
17 17 9 7 16 14 14 22 19 10 2 3 2 5 4 5 5 4 6 4 10 20 36 53 58 49 46 62 61 60 57 55 53 54 47 49 47 43 47 40 38 42 38
15 12 4 6 13 13 17 18 12 3 3 2 2 5 6 6 9 9 8 13 20 47 54 47 48 51 57 61 59 55 53 51 47 37 42 46 45 44 46 39 39 40 43
12 6 4 5 13 16 16 10 6 2 6 5 9 9 12 13 15 15 13 22 42 52 49 51 52 57 63 60 52 48 49 47 42 40 38 41 44 41 39 44 40 42 33
8 11 7 2 10 17 15 8 7 3 5 6 8 11 16 21 22 17 12 37 55 48 52 47 54 59 57 50 47 49 47 42 40 36 34 40 35 39 34 38 36 37 37
7 15 10 1 8 14 19 9 5 5 2 5 8 11 18 21 25 17 16 52 48 47 47 48 52 57 58 49 44 46 44 36 35 33 30 33 31 32 28 32 34 35 35
6 9 15 5 6 12 15 7 7 6 5 5 6 8 16 26 29 21 19 45 47 48 47 54 58 59 55 50 44 46 42 39 37 34 32 31 31 32 34 33 39 40 40
4 7 14 6 7 9 12 10 4 9 8 6 5 6 9 25 29 25 18 35 49 48 42 55 57 60 54 50 46 37 40 40 39 39 37 26 27 34 37 34 32 34 36
2 8 13 8 7 4 8 10 10 6 5 7 6 7 7 22 30 29 19 25 48 47 42 42 56 60 52 52 47 39 38 42 41 37 40 33 23 24 30 32 33 36 33
4 6 11 9 6 2 1 3 7 8 13 16 19 8 8 16 29 29 22 18 34 48 44 38 43 54 55 52 48 43 39 39 41 34 39 42 34 33 27 29 31 33 33
7 2 7 9 8 6 5 2 4 7 12 14 16 9 3 13 25 28 24 15 24 34 36 43 41 38 55 51 44 45 41 37 40 41 29 43 40 36 32 38 38 41 47
7 5 3 4 9 8 8 10 7 4 7 14 12 8 7 12 17 31 26 16 17 28 24 23 24 35 39 53 51 45 40 37 37 38 39 39 35 41 37 42 37 38 39
7 6 4 5 3 7 9 11 10 8 7 9 8 12 14 16 16 25 27 18 21 20 22 21 24 22 22 28 39 46 44 43 42 39 38 34 33 37 37 41 42 43 45
7 8 6 6 7 6 5 8 11 10 9 11 11 14 15 11 18 24 26 22 23 23 17 16 20 21 23 19 19 25 26 23 19 20 23 25 28 31 36 42 46 49 52
8 8 8 7 6 7 8 7 5 8 12 13 14 11 13 6 12 20 24 20 15 12 11 15 18 21 20 22 25 23 25 31 32 28 27 30 37 38 38 38 41 44 51
8 9 9 8 7 8 7 8 9 8 8 11 15 16 14 15 12 8 12 19 24 23 27 21 21 19 19 21 21 21 24 29 30 32 35 37 39 41 45 49 51 53 53
5 8 11 10 9 7 7 6 8 9 10 9 10 15 15 14 13 13 13 15 15 14 16 18 18 24 28 28 30 29 29 31 31 30 31 35 38 40 41 43 47 52 55
4 5 9 11 13 11 9 9 9 8 9 10 10 9 8 11 15 16 16 15 14 14 14 15 16 16 18 19 20 22 23 24 27 30 34 37 40 43 45 45 43 40 34
7 6 4 5 8 9 9 8 9 10 9 8 8 8 8 8 8 9 11 14 18 19 20 20 21 22 23 24 25 27 29 30 31 30 30 28 27 25 24 22 30 35 44
8 8 8 5 2 3 4 4 6 9 9 7 6 7 6 6 6 6 7 8 9 11 12 12 13 14 16 17 19 21 22 21 19 15 8 13 18 24 27 28 34 39 36
11 9 10 9 6 4 1 1 3 4 5 5 4 4 5 6 8 8 8 7 6 5 4 3 3 8 6 8 9 9 10 10 8 7 12 16 27 25 32 36 38 38 40
19 15 12 12 11 11 10 8 7 5 3 3 4 5 3 3 6 8 7 7 9 8 4 3 6 11 12 10 10 10 9 8 8 6 12 20 31 32 31 42 46 47 47
28 24 20 16 16 14 16 16 13 12 11 10 7 7 8 7 9 14 12 12 9 6 9 5 9 12 13 15 15 11 8 7 5 8 12 40 42 42 39 43 49 56 53
35 30 28 24 21 19 17 18 19 16 14 16 17 13 10 8 11 7 2 2 6 12 13 16 12 15 16 21 11 4 4 4 12 22 30 40 50 48 47 43 47 58 64
42 39 36 32 29 26 24 23 22 21 20 22 23 21 23 20 16 13 12 15 15 14 16 20 25 27 27 16 13 17 22 22 28 38 41 45 52 50 51 51 54 58 68
49 47 44 42 38 34 31 30 29 28 29 25 31 33 30 27 27 30 30 27 21 25 28 27 28 29 29 28 23 25 30 36 37 38 42 50 52 60 57 55 58 61 73
51 50 49 49 47 44 41 38 37 35 34 34 31 36 39 38 38 36 36 34 33 34 33 32 33 35 35 35 35 35 37 43 44 46 49 54 59 61 65 62 62 68 72

GFSGL_250_spd_030.txt.gz
Wind_Speed
33 30 28 14 12 15 19 23 26 21 16 13 5 3 4 7 5 1 5 18 33 31 30 31 34 30 27 22 22 26 29 33 41 54 54 54 51 47 45 41 34 31 27
27 25 17 7 8 15 20 20 19 13 15 10 5 1 3 6 2 6 15 37 42 40 41 43 39 39 39 40 45 45 44 44 52 49 46 48 46 41 37 36 33 31 28
22 19 9 2 7 15 23 19 15 8 11 10 4 5 10 9 10 15 42 44 31 38 39 44 42 42 41 43 47 45 42 43 39 41 39 44 38 41 36 34 35 32 33
17 16 9 4 6 15 20 17 12 10 4 8 4 6 14 13 6 14 51 37 32 37 41 40 41 41 39 45 45 43 43 42 43 37 42 45 38 39 34 32 28 29 28
16 12 10 4 5 12 19 16 15 12 5 5 1 5 18 17 7 15 41 31 27 38 39 40 42 41 43 44 43 39 36 38 41 35 35 35 36 36 36 31 36 31 29
15 8 12 7 4 10 15 13 12 11 9 1 2 2 16 19 13 20 36 28 28 42 36 44 39 41 38 39 38 37 33 32 29 29 27 32 31 32 36 32 34 31 29
11 4 9 12 4 7 11 15 12 11 11 10 0 1 16 20 14 29 33 25 27 44 37 41 38 39 34 38 36 34 29 31 27 25 26 24 30 24 25 25 22 26 30
8 4 8 10 5 5 7 10 12 8 8 8 3 5 13 22 17 26 30 25 32 42 41 44 38 36 34 35 34 31 28 26 23 22 20 22 22 21 21 24 25 26 28
4 2 6 10 7 2 4 5 11 9 10 11 9 8 11 24 20 17 29 26 29 38 43 45 43 33 32 31 34 33 31 30 28 27 23 21 23 26 25 24 27 27 29
3 2 5 11 8 8 5 1 3 5 3 10 8 3 6 17 22 16 17 30 33 29 31 42 46 41 36 32 31 31 39 34 35 33 33 28 28 26 29 32 33 34 36
5 3 3 8 11 9 10 6 4 3 3 5 4 4 7 17 25 18 10 16 28 33 31 31 44 47 40 38 34 33 29 33 34 34 36 35 33 32 34 36 35 36 37
6 3 4 3 10 12 14 12 9 4 2 4 11 13 9 15 26 21 12 9 23 28 27 26 30 40 44 38 39 36 35 35 28 31 40 36 36 38 41 42 44 47 47
5 5 4 4 5 9 13 13 11 7 4 5 13 16 9 12 24 24 14 11 24 19 17 19 21 28 33 39 42 43 42 40 33 35 34 37 38 40 41 41 38 38 40
5 5 5 6 5 5 5 7 10 12 10 11 12 11 13 12 16 24 14 18 18 22 18 13 16 19 17 17 21 30 33 33 29 25 22 24 21 22 28 32 34 37 40
4 1 4 5 7 7 6 5 5 8 12 15 14 12 11 9 15 16 19 18 19 21 19 18 19 19 18 18 19 19 20 23 24 27 29 29 30 32 34 37 41 45 48
0 3 2 3 5 7 6 6 5 6 7 11 16 16 14 11 11 12 17 20 18 19 16 17 17 13 13 14 16 18 20 24 27 30 33 35 36 35 32 34 39 42 42
3 3 4 5 4 6 6 6 7 6 7 8 8 14 15 13 12 12 13 16 22 23 24 25 25 22 26 26 26 29 28 28 29 31 31 27 27 32 32 28 27 26 30
7 3 3 3 4 7 8 9 10 8 6 6 7 9 10 11 13 14 15 16 15 14 14 13 14 15 16 17 18 21 23 24 26 26 27 24 19 15 14 20 18 15 22
9 7 4 3 4 6 6 8 9 9 9 8 7 5 6 7 8 8 10 11 12 13 13 13 11 10 10 11 14 16 16 15 14 12 10 3 5 11 11 13 20 26 31
12 9 7 4 1 2 5 5 4 5 6 6 6 6 4 5 7 8 9 9 8 8 7 3 7 6 6 3 3 2 4 7 10 14 13 1 15 21 22 27 27 33 36
18 14 12 9 8 7 5 3 1 3 6 5 6 4 6 3 5 7 8 10 10 11 13 11 8 7 8 8 7 7 3 6 10 12 11 8 23 22 33 36 39 40 40
26 22 19 15 14 13 11 10 8 6 4 5 6 7 4 1 3 6 10 13 11 9 4 7 6 4 10 9 11 7 9 5 7 7 4 19 26 31 37 42 43 46 47
33 29 26 23 20 17 16 14 12 10 9 8 16 13 11 10 6 4 13 13 9 4 3 3 6 11 12 15 17 5 9 3 8 15 20 26 28 31 38 41 44 45 51
40 38 34 30 28 27 25 21 18 16 14 12 16 21 17 18 16 15 12 13 11 13 17 17 15 16 19 19 19 18 16 19 17 18 28 34 32 38 43 40 45 50 54
50 48 44 42 38 35 33 31 28 26 22 20 19 24 27 24 24 24 24 25 25 28 26 22 24 23 22 20 24 25 27 25 29 32 37 36 44 46 47 47 50 53 57
59 56 53 50 49 46 42 40 38 35 34 31 28 25 26 29 34 36 35 33 33 33 32 33 32 27 23 29 31 32 33 33 38 42 40 43 44 44 44 48 54 55 57

GFSGL_250_spd_033.txt.gz
Wind_Speed
32 30 32 26 24 15 15 20 21 17 15 11 8 6 5 5 7 9 13 18 15 15 15 14 13 14 17 12 10 13 19 24 28 30 30 31 37 47 53 54 54 39 37
28 30 26 22 19 10 15 19 18 16 12 13 7 2 4 0 2 7 20 15 14 19 20 23 24 25 26 25 24 21 18 21 25 31 27 33 40 43 49 50 45 35 31
29 26 20 20 11 11 15 19 15 13 10 12 7 5 5 7 12 23 22 14 21 30 28 31 32 30 28 27 28 31 35 29 26 34 38 41 48 46 42 40 39 31 24
27 19 18 14 9 10 17 17 17 12 9 9 7 7 9 7 16 22 20 20 29 30 31 32 31 28 29 31 33 42 38 35 39 40 41 43 40 39 39 36 32 26 21
23 15 15 10 8 8 15 15 15 16 13 7 7 4 9 4 20 27 18 25 27 29 31 25 27 33 34 33 33 36 36 34 33 35 36 33 32 31 27 26 26 25 22
16 16 13 12 7 6 12 14 11 13 14 10 6 9 11 5 35 24 20 31 27 31 21 28 30 35 37 35 35 31 30 32 31 29 27 27 31 25 23 24 23 19 14
14 16 10 13 7 4 7 13 12 11 11 9 5 11 16 10 34 25 21 33 28 28 23 27 28 31 32 33 30 30 30 30 30 30 26 26 25 20 21 17 18 21 25
12 12 9 11 6 2 4 9 9 10 10 9 6 7 20 13 26 22 23 33 26 30 26 27 25 27 27 24 23 25 24 24 24 23 23 26 25 21 20 20 20 21 20
10 9 7 10 7 3 2 5 5 8 9 8 9 7 22 17 22 18 21 33 27 33 28 27 26 25 25 22 19 19 20 21 18 16 17 20 21 21 18 17 18 20 22
8 9 6 10 10 10 6 1 1 6 7 9 8 7 22 20 14 14 19 27 35 32 30 29 24 26 24 24 20 21 20 19 16 20 18 19 20 17 19 18 19 22 25
7 7 4 6 10 14 10 6 3 4 4 8 7 4 22 22 16 12 20 16 28 34 33 28 30 28 23 23 26 23 23 22 20 21 18 18 20 23 25 25 29 31 30
6 6 5 4 7 14 13 9 4 1 5 8 9 8 16 25 18 15 11 19 25 23 29 34 29 28 26 31 27 26 26 25 23 23 25 24 25 26 27 29 30 34 38
6 4 5 2 1 8 14 12 8 4 2 7 11 12 11 22 19 15 10 14 20 21 19 23 30 35 32 27 24 26 26 27 25 28 29 31 35 36 36 35 39 41 37
8 2 4 1 2 3 7 12 13 8 5 10 12 14 13 19 20 14 10 20 18 20 17 18 18 18 25 30 33 34 33 31 31 33 34 34 35 31 34 37 34 29 33
6 3 2 2 3 2 3 4 7 12 10 13 13 13 15 15 20 13 11 15 13 16 14 11 12 13 14 14 18 19 17 21 23 22 22 23 23 23 23 26 31 35 37
4 7 3 3 4 3 2 3 4 7 11 15 14 13 11 15 17 14 12 13 16 14 13 12 11 14 13 14 13 12 14 15 16 18 21 25 28 31 31 32 33 33 32
3 7 9 6 6 4 3 4 5 5 7 11 15 14 14 12 13 15 19 17 14 11 14 11 13 11 12 14 12 15 15 16 17 19 21 21 24 25 26 30 21 18 15
5 6 7 9 9 11 9 7 6 6 5 5 7 12 14 14 13 13 17 22 21 19 20 20 19 20 22 19 23 23 24 24 24 25 25 26 26 19 12 10 8 17 19
9 7 8 9 9 8 8 9 10 9 7 6 5 5 5 6 8 11 15 16 17 19 18 17 17 16 17 18 19 19 19 19 20 20 17 6 5 5 3 7 16 14 23
12 11 10 10 10 10 10 9 8 9 10 9 8 5 3 4 5 6 8 9 11 12 12 11 11 10 8 4 2 4 10 14 16 12 18 19 4 3 12 19 25 27 30
15 14 13 12 12 12 12 11 10 7 5 5 7 2 7 4 1 4 7 7 8 9 12 15 12 8 9 6 8 5 2 6 9 16 21 18 15 12 21 20 24 32 32
22 19 17 16 15 13 12 11 10 10 9 7 7 5 4 2 1 2 5 10 12 13 16 11 10 8 4 10 9 6 5 1 5 12 17 18 12 17 21 22 29 34 36
30 27 26 23 19 16 15 14 12 13 13 11 9 10 6 6 3 1 8 12 13 11 9 8 3 5 5 7 7 6 10 6 2 6 10 12 20 27 30 35 36 39 45
38 34 32 31 28 25 21 18 16 15 16 16 13 13 15 10 12 11 9 9 15 13 9 14 14 10 10 13 9 7 9 13 13 16 17 22 30 31 32 35 40 41 41
43 41 39 38 35 32 28 25 24 22 21 21 20 16 15 20 18 17 17 18 19 22 22 24 24 22 19 16 13 13 15 18 21 27 30 31 37 35 39 43 45 41 46
46 43 45 47 45 41 38 34 32 30 30 29 29 28 25 22 25 27 29 29 30 30 31 32 32 29 26 24 25 23 25 23 24 28 30 31 34 38 42 43 45 47 51

GFSGL_250_spd_036.txt.gz
Wind_Speed
27 28 28 30 27 23 18 23 24 19 10 8 3 3 4 3 5 7 9 5 6 6 3 5 9 11 9 6 8 10 13 18 23 27 27 34 40 43 48 49 50 50 40
28 26 28 26 22 16 18 20 21 14 7 8 3 2 1 4 2 10 4 1 4 0 3 9 12 12 11 16 14 12 16 17 17 21 22 27 35 40 48 50 51 46 41
25 27 26 20 18 15 17 21 17 10 5 6 2 3 3 6 7 13 2 3 8 8 12 12 17 18 17 16 16 18 18 16 17 17 18 24 30 37 43 48 54 40 36
24 26 21 17 15 14 17 16 9 12 10 5 3 6 3 6 13 10 9 15 14 16 14 19 25 23 20 25 22 18 18 21 21 22 21 25 30 33 36 41 49 37 20
24 24 16 16 14 12 13 11 10 13 13 6 3 6 4 4 17 12 15 16 17 14 19 23 26 29 31 33 39 40 39 37 33 33 33 35 39 41 37 32 29 21 18
25 19 15 12 14 12 5 9 7 9 8 3 1 7 3 5 20 17 18 18 12 19 24 24 29 28 34 31 32 36 35 41 38 36 36 37 33 29 28 25 23 20 12
24 18 14 11 15 10 3 7 11 10 9 4 0 8 8 24 19 18 20 21 18 20 21 25 25 27 29 28 28 26 26 29 29 29 28 28 25 24 19 18 16 15 14
23 15 11 10 14 9 4 4 7 10 10 5 1 12 13 24 18 17 24 23 23 21 24 27 25 28 25 27 26 25 24 19 18 20 24 21 20 16 14 14 13 17 10
23 13 10 9 14 11 6 0 5 8 11 6 4 14 20 23 18 16 23 25 23 19 24 25 24 23 19 21 24 27 27 22 20 18 17 19 13 11 13 8 8 11 13
20 12 10 11 13 11 9 4 1 5 8 12 5 18 18 22 17 16 20 21 23 22 16 21 19 20 19 18 18 19 17 15 17 17 16 14 12 12 10 9 10 14 18
17 11 8 9 13 12 13 5 3 5 5 8 6 20 20 19 17 19 20 22 26 24 24 22 22 17 17 13 16 14 15 15 12 12 13 8 10 12 15 16 17 19 22
15 10 7 8 7 12 14 8 4 2 5 5 5 18 22 20 16 21 18 22 26 27 22 30 24 20 21 21 19 13 14 13 11 12 11 11 11 9 11 16 20 23 28
15 10 6 7 2 7 14 12 7 1 5 3 6 15 25 18 15 16 20 17 19 21 26 23 20 22 24 22 20 20 18 16 15 16 17 18 21 23 25 28 31 34 36
13 9 4 4 2 1 6 12 11 6 3 6 10 18 23 21 14 9 14 21 22 19 20 25 25 25 25 22 22 21 13 18 17 18 20 23 25 26 25 27 29 31 24
9 6 4 3 0 2 3 4 10 9 8 7 11 20 25 21 16 8 15 18 19 21 19 18 18 18 18 17 20 21 22 22 20 16 16 16 19 23 22 21 22 26 28
7 3 0 1 2 2 3 4 5 11 12 12 10 14 23 19 16 12 15 15 14 15 14 12 12 11 13 11 9 8 10 9 10 11 14 15 17 19 22 20 19 20 20
4 4 5 3 4 5 4 6 8 8 13 15 12 12 11 19 16 12 11 14 14 13 14 11 9 10 12 12 12 10 11 10 11 12 13 13 16 16 15 16 18 12 8
4 2 5 8 9 10 8 7 8 9 9 13 15 14 13 11 11 12 13 12 10 11 12 13 12 11 12 15 15 14 18 17 18 19 19 17 16 15 11 5 2 7 12
9 4 3 5 7 9 12 12 11 9 10 9 8 10 13 14 13 12 11 17 18 15 15 15 17 18 18 20 24 23 20 23 24 23 19 16 12 6 5 1 5 8 12
13 10 7 5 6 8 9 11 13 12 11 9 8 7 7 7 9 11 14 17 17 17 19 19 17 16 17 15 12 10 10 13 16 15 12 12 16 8 2 9 15 21 20
17 13 12 11 8 9 9 8 10 10 11 11 9 7 7 5 5 7 8 9 10 11 12 12 12 11 9 5 5 4 5 5 4 6 18 23 22 17 9 13 16 23 25
18 17 14 14 15 13 11 10 9 8 8 7 8 9 6 7 7 5 7 9 11 13 16 15 13 14 7 5 7 2 1 3 6 6 11 15 26 20 17 16 22 26 32
27 23 22 18 17 16 16 15 12 11 10 9 9 7 7 7 5 5 6 9 12 18 19 16 12 10 7 5 8 6 3 2 2 3 2 6 10 15 21 25 28 32 34
32 32 30 26 25 22 20 16 16 14 14 14 12 10 11 10 6 6 3 7 14 17 20 21 15 11 11 12 12 11 10 9 9 12 18 19 19 23 28 32 34 33 36
37 37 34 31 30 29 26 24 22 21 18 15 13 16 16 13 13 12 13 12 11 18 22 18 18 21 24 20 18 17 19 17 15 13 13 18 22 25 31 32 34 38 37
39 41 40 38 36 35 34 32 30 27 25 24 22 20 20 21 21 20 20 21 23 23 26 28 29 29 29 29 30 26 24 27 29 28 26 28 33 35 36 37 39 41 46

GFSGL_250_spd_042.txt.gz
Wind_Speed
23 24 24 31 34 32 35 31 28 25 26 26 26 22 21 18 14 13 17 16 16 13 12 12 10 8 5 3 7 2 3 9 17 24 25 27 30 32 28 33 39 40 44
25 21 26 31 29 34 31 26 22 23 25 25 22 19 16 12 8 9 10 9 10 16 14 14 12 8 2 2 5 10 7 13 18 21 23 27 34 33 36 39 44 48 44
21 22 27 28 29 28 24 21 18 21 21 25 17 14 9 3 5 8 6 15 15 15 16 16 13 11 11 7 8 18 17 19 22 21 22 30 34 35 41 43 46 47 30
19 23 26 24 27 23 23 14 16 19 18 19 13 6 3 0 1 6 13 17 18 20 21 19 14 12 15 14 17 21 24 24 23 23 28 30 31 37 38 39 42 43 26
19 24 22 22 22 20 14 9 14 18 16 14 8 2 3 6 4 14 18 19 24 27 28 30 27 21 22 20 23 21 22 26 25 23 27 30 32 39 39 41 38 33 31
21 25 21 20 19 15 8 8 11 15 13 8 5 7 8 11 8 20 21 25 26 30 33 37 38 35 27 22 22 23 23 23 25 26 28 32 35 42 43 42 36 33 28
21 25 19 20 18 12 7 6 8 13 11 8 5 4 15 11 14 23 25 25 26 29 34 35 37 38 43 40 37 33 31 29 28 25 27 34 39 38 39 39 32 24 22
23 22 18 18 15 10 8 7 7 11 11 8 5 5 14 14 17 23 26 25 26 30 28 30 33 35 36 39 43 44 45 42 37 34 34 40 37 35 39 36 29 26 22
22 19 17 17 12 8 6 4 6 8 13 11 2 7 12 14 19 21 26 23 22 22 24 26 30 30 31 34 33 36 38 41 42 41 34 37 36 38 34 27 22 18 15
18 17 18 17 12 7 4 2 5 7 12 8 3 11 13 15 23 21 27 23 24 24 23 24 25 22 26 27 31 33 34 34 34 36 36 32 28 25 21 19 18 15 12
15 16 18 17 10 8 4 4 4 7 9 6 10 16 15 17 22 22 26 22 21 17 20 24 24 22 23 21 22 24 23 24 26 26 27 26 23 18 14 13 12 10 8
15 16 18 15 9 6 4 7 6 5 6 5 13 18 17 20 24 22 20 24 21 20 16 16 18 18 16 16 16 20 19 18 21 21 20 20 18 16 11 9 11 6 2
12 14 16 10 8 5 4 8 6 7 4 3 13 20 19 18 23 23 21 21 22 20 18 13 12 13 12 15 14 11 11 13 13 17 17 17 14 8 6 5 7 12 11
10 14 14 9 6 2 3 6 7 8 3 2 16 23 21 17 20 27 25 18 15 18 18 17 14 12 17 13 11 12 11 12 10 13 12 6 4 6 9 11 11 10 10
7 11 12 7 3 1 2 6 9 6 2 1 19 23 19 21 23 24 27 26 29 27 19 23 23 17 16 14 14 14 10 14 12 10 9 8 9 10 11 13 12 11 15
5 8 9 4 3 3 4 5 10 8 4 5 18 27 18 16 16 18 21 23 27 27 28 25 25 26 20 17 20 19 17 18 20 17 17 18 17 16 14 12 14 17 17
3 5 8 6 3 3 4 5 9 11 8 9 18 24 18 15 12 14 18 20 18 20 20 18 19 27 18 21 19 16 20 19 20 14 15 16 16 16 19 18 20 19 13
0 3 5 8 7 1 3 6 9 13 13 12 19 23 16 14 11 19 18 19 18 18 17 17 15 15 16 16 17 15 14 11 10 9 12 15 16 15 14 15 12 13 9
2 0 4 6 8 4 4 4 7 12 14 15 16 21 18 15 12 10 11 14 14 16 18 17 14 11 14 12 11 10 11 14 14 16 17 16 19 18 16 15 16 16 11
5 2 2 4 5 3 2 3 5 8 12 15 14 13 14 13 13 12 13 12 12 12 15 12 14 14 14 11 12 13 13 16 21 23 24 22 21 19 16 15 17 17 14
8 7 4 4 7 4 1 2 4 7 8 8 11 15 17 17 17 16 15 15 16 18 18 16 16 17 18 17 17 16 15 13 13 13 13 16 18 16 17 21 18 13 11
16 10 7 4 4 7 7 6 5 5 5 5 6 7 9 10 11 12 13 15 17 19 20 20 19 18 17 16 14 11 9 6 5 6 5 7 12 16 22 22 16 14 15
19 18 12 9 7 5 7 8 9 8 7 8 10 5 3 3 4 6 10 11 12 12 13 14 15 16 15 14 12 10 8 5 5 6 6 7 10 14 18 23 26 26 25
22 20 19 16 13 11 9 8 9 9 9 8 9 10 8 10 5 2 4 8 9 10 11 12 13 14 15 13 9 10 10 9 10 12 12 12 12 14 19 21 25 30 33
28 27 28 26 21 19 18 17 15 13 12 12 12 12 12 10 12 11 8 6 5 4 6 10 12 14 18 18 14 13 14 14 14 14 18 19 22 21 22 24 29 32 32
36 32 35 32 28 27 26 25 25 23 21 20 18 17 15 13 13 13 11 12 13 12 12 15 18 22 22 23 23 22 23 21 22 25 26 28 31 32 34 36 36 39 41

GFSGL_250_spd_045.txt.gz
Wind_Speed
36 33 31 31 28 30 30 33 33 29 28 25 23 25 22 19 13 11 10 12 7 7 10 11 10 6 2 2 5 2 7 14 19 24 31 34 34 33 32 33 39 41 43
29 29 28 28 29 29 29 31 26 27 23 23 24 24 18 12 5 6 7 5 8 12 11 8 9 9 1 3 1 3 6 13 21 25 28 31 31 31 32 32 35 38 41
25 24 26 24 29 26 30 28 25 22 18 22 23 18 10 2 7 7 9 11 11 10 12 11 6 7 3 8 8 4 10 15 22 27 27 29 35 35 33 36 39 42 43
18 20 23 25 27 27 30 24 23 14 17 20 19 13 5 7 7 10 12 11 12 15 13 12 11 7 6 13 12 10 14 23 25 28 30 34 39 37 43 44 46 42 44
15 18 21 24 27 27 25 21 14 11 17 16 12 6 3 9 14 15 15 18 21 18 15 14 11 10 11 15 15 16 18 23 27 29 35 41 42 45 49 44 39 37 39
16 17 21 24 27 25 19 17 8 9 12 11 8 4 5 10 17 20 20 25 25 24 23 19 12 11 11 12 17 21 24 23 25 36 41 42 43 45 43 43 39 36 33
14 19 23 25 24 21 16 13 4 5 10 9 8 1 12 18 24 24 26 28 28 26 25 27 26 22 18 17 18 19 24 30 31 32 36 42 38 36 39 46 36 41 27
16 18 22 23 21 16 13 10 6 4 8 9 6 5 16 25 30 27 28 30 28 26 29 35 35 38 38 31 24 23 25 29 33 39 40 42 41 38 35 32 33 33 32
17 19 20 21 17 14 13 8 6 3 9 8 2 10 22 28 31 29 30 25 26 28 28 27 30 33 34 39 38 32 30 32 35 36 43 45 48 45 33 35 33 30 28
13 17 18 17 16 13 12 9 8 2 7 5 4 20 22 29 29 29 28 25 23 24 25 25 28 30 32 34 38 43 44 42 41 42 42 40 37 34 32 30 27 26 24
12 18 19 15 15 12 12 10 10 4 4 2 13 20 24 30 32 28 23 22 22 23 20 25 26 26 26 29 33 37 40 41 41 41 43 45 36 31 28 27 24 19 13
13 17 18 14 13 12 10 10 12 7 1 2 16 18 25 29 32 28 27 26 23 22 20 23 24 22 21 21 23 27 31 33 34 32 32 32 31 29 24 20 12 10 9
14 15 15 12 10 10 9 9 13 8 2 4 20 20 25 28 32 30 29 25 24 22 23 23 18 14 17 19 18 22 24 24 23 25 26 25 23 19 16 15 15 12 11
13 14 11 10 9 8 6 8 13 10 6 5 23 26 25 30 27 29 27 25 23 23 18 16 15 16 17 15 13 13 15 16 13 20 20 20 17 15 13 14 12 11 14
14 13 8 6 6 5 5 7 12 11 8 5 20 29 22 28 30 27 25 25 25 19 17 16 14 17 16 15 14 12 14 17 16 14 14 12 11 10 11 13 17 22 22
14 9 5 4 3 4 5 5 7 11 8 8 24 27 22 20 25 30 29 23 21 19 24 21 20 15 11 12 13 10 6 6 9 11 12 11 12 13 14 15 16 17 17
11 6 2 5 3 3 4 3 7 11 6 14 27 23 18 20 22 25 31 31 30 29 24 23 26 21 18 14 17 15 15 16 15 16 18 19 19 15 12 14 17 19 25
8 3 1 5 5 2 2 2 7 12 8 17 28 23 18 14 15 21 25 27 31 30 31 29 26 23 23 24 21 18 19 17 16 17 19 16 14 15 19 22 21 22 22
7 4 1 3 5 3 3 2 7 13 11 17 24 24 18 16 11 15 20 21 21 20 20 18 16 16 18 21 20 16 16 15 16 16 13 13 13 19 20 18 18 21 22
3 4 3 1 5 6 4 3 5 13 15 16 22 21 16 16 14 12 13 17 19 19 19 18 17 17 18 16 17 17 14 13 17 20 22 23 24 21 22 25 25 23 20
5 4 2 1 1 3 6 6 5 6 13 16 16 19 19 17 17 16 17 17 19 19 21 20 20 21 20 18 16 16 17 17 18 19 19 21 21 22 23 23 23 22 22
14 6 5 3 2 2 3 7 8 8 8 10 11 13 15 15 16 16 18 21 24 23 22 22 21 20 21 22 22 20 20 17 14 13 11 9 9 10 15 19 21 24 25
21 15 9 7 5 4 4 5 5 7 6 9 9 10 10 9 10 11 14 16 18 20 22 24 26 27 27 25 23 20 16 13 11 8 5 5 6 8 13 15 20 25 25
22 21 18 14 10 9 7 7 6 6 6 7 8 7 7 7 7 6 7 10 10 12 15 15 16 17 18 17 17 17 17 15 11 9 11 12 11 11 12 12 13 19 20
24 27 24 22 17 15 11 11 11 11 11 11 11 11 10 10 11 11 9 8 10 12 13 14 15 15 16 19 19 19 19 17 12 11 11 11 12 13 13 17 18 19 23
24 31 31 31 29 23 22 20 18 16 15 14 15 14 12 11 13 13 13 13 12 11 10 10 13 16 19 22 25 24 24 24 23 22 21 21 22 24 24 25 28 32 35

GFSGL_250_spd_048.txt.gz
Wind_Speed
39 36 37 36 31 32 33 34 39 38 41 38 36 33 28 22 14 8 5 5 3 1 9 8 5 4 7 6 4 5 8 14 26 22 30 39 37 39 35 34 38 42 47
36 35 34 28 29 32 31 34 36 37 39 35 33 28 24 15 8 2 1 3 0 3 6 9 7 7 5 7 7 6 7 13 23 29 31 38 38 40 35 33 38 43 48
34 33 26 26 28 26 30 34 34 37 36 31 27 25 15 8 3 5 5 4 3 11 16 13 8 6 5 9 10 9 10 14 18 28 32 37 37 38 37 33 38 44 51
30 24 23 24 21 24 29 31 34 34 29 25 24 14 7 7 8 10 8 2 5 11 16 21 9 6 6 7 9 9 11 17 22 25 32 37 35 34 35 34 40 44 48
24 22 25 20 20 27 28 30 31 27 24 21 16 6 4 9 14 12 10 8 10 9 2 3 12 5 4 9 7 8 14 19 23 30 33 35 36 38 38 38 39 38 41
20 23 24 20 22 26 26 30 25 22 19 15 11 5 12 14 16 19 18 13 14 11 11 11 8 3 2 5 4 6 13 19 25 29 34 41 43 43 45 43 40 35 38
22 22 19 19 24 25 26 26 20 19 16 13 11 5 13 18 20 25 20 16 14 13 13 16 11 2 1 4 5 9 17 23 28 32 42 47 48 45 45 53 51 42 40
24 19 15 19 24 23 25 22 18 17 11 11 10 7 17 24 26 26 20 18 18 20 20 20 21 12 4 8 10 11 21 28 36 40 42 46 39 40 39 40 38 39 37
25 16 15 17 19 23 24 20 16 13 11 11 6 16 23 29 29 28 22 20 22 19 19 20 21 21 11 12 17 17 27 34 39 41 37 39 47 42 39 37 36 38 38
18 13 13 16 19 23 24 18 14 12 12 10 6 23 29 34 32 27 24 23 21 22 23 22 22 22 17 16 22 25 28 35 40 37 40 44 47 44 42 32 33 35 32
18 12 15 18 21 22 21 13 13 16 10 6 12 27 33 36 33 26 26 24 23 22 22 24 26 27 26 28 28 29 30 37 44 51 47 48 45 40 37 36 34 30 25
15 12 15 19 21 20 15 11 12 16 9 6 25 27 33 36 31 27 25 22 21 23 22 23 24 23 28 34 37 37 38 44 48 41 41 39 38 35 32 27 24 25 19
14 12 15 18 20 18 11 11 13 18 9 9 27 28 33 35 32 29 25 23 22 21 22 19 18 18 19 24 27 31 33 38 37 37 34 32 28 27 26 24 19 16 14
14 12 15 18 20 13 9 11 14 19 11 10 28 26 34 37 33 32 29 25 23 24 22 22 13 14 16 21 23 26 29 30 30 29 27 24 25 23 22 21 19 16 13
15 14 14 17 16 9 6 8 15 18 13 10 26 27 34 38 33 32 31 27 25 24 20 15 15 20 17 14 11 14 16 16 21 22 21 19 18 18 17 17 17 17 12
15 16 14 13 11 8 7 6 12 16 14 12 25 29 33 37 32 34 32 29 28 25 22 16 19 20 17 16 14 13 13 16 15 18 19 17 13 13 12 13 16 10 15
15 14 13 10 9 6 6 5 8 14 12 12 25 33 28 32 30 32 33 29 27 24 22 19 19 20 18 15 13 11 9 7 8 9 11 13 15 18 14 16 18 24 28
14 12 11 10 8 6 6 8 7 12 10 17 27 31 25 22 30 31 27 30 27 24 23 26 26 21 21 17 20 18 16 15 15 15 20 21 20 17 16 17 19 20 24
12 11 7 7 6 6 5 7 13 11 9 21 29 28 22 22 26 25 32 32 32 33 27 25 25 26 25 23 23 21 22 20 22 20 20 21 20 20 20 22 26 29 28
8 10 7 2 2 3 7 6 11 15 14 23 31 25 18 16 15 23 28 28 31 33 30 31 29 30 29 27 24 26 27 24 22 23 23 22 19 20 22 22 25 27 27
10 10 8 5 1 1 3 7 8 16 16 21 28 24 20 17 13 11 15 20 21 23 26 25 24 24 20 21 22 24 24 22 18 18 23 26 29 30 32 31 32 31 32
16 11 8 8 7 4 4 4 8 11 15 18 25 26 23 21 18 18 18 19 20 22 22 23 23 22 22 20 21 20 20 19 21 23 22 22 21 19 19 21 24 26 27
24 16 10 5 8 8 7 6 7 10 13 15 18 19 21 21 19 19 19 21 24 23 23 22 23 25 21 24 26 24 23 24 24 20 16 12 8 8 10 11 13 17 20
25 26 18 12 7 8 10 11 10 9 10 12 14 15 16 17 17 18 20 23 25 28 29 30 30 30 31 30 31 31 30 28 24 20 16 15 16 14 13 12 14 17 16
27 25 25 23 18 11 9 10 11 11 10 8 8 9 8 7 7 7 6 9 16 17 18 21 22 22 23 25 27 28 28 26 26 25 22 21 19 18 17 16 15 17 20
31 28 25 28 25 22 20 15 12 11 10 11 11 11 11 11 11 10 11 10 9 9 10 12 16 20 22 23 22 22 24 25 25 25 23 21 23 24 26 26 26 27 29